Location: Boissy
(48.8207°N, 3.1365°E)
Time: 21:52:09
(UTC+00:00)

Daily predictions for brighter satellites

Satellite Brightness Start Highest point End
(mag) Time Altitude Azimuth Time Altitude Azimuth Time Altitude Azimuth
Cosmos 2322 Rocket 3.6 20:28:53 10° NW 20:34:01 36° WSW 20:39:09 10° S
Meteor 1-16 Rocket 4.5 20:29:20 10° N 20:35:16 68° ENE 20:41:07 10° SSE
Cosmos 1570 Rocket 4.4 20:31:24 10° NNW 20:36:41 55° ENE 20:41:55 10° SE
Cosmos 2297 Rocket 3.7 20:38:52 10° SE 20:42:26 17° E 20:46:01 10° ENE
Aureole 3 4.0 20:38:59 10° S 20:43:34 71° E 20:49:21 10° NNE
Cosmos 1707 Rocket 3.7 20:39:27 10° SSW 20:43:53 80° W 20:48:19 10° N
Cosmos 1356 Rocket 3.9 20:39:50 10° SSW 20:43:59 64° WNW 20:48:11 10° N
Cosmos 1758 4.3 20:41:10 10° NNW 20:44:56 45° W 20:48:43 10° SSW
Cosmos 2219 Rocket 2.6 20:43:41 10° NNW 20:49:19 64° WSW 20:54:55 10° SSE
ATLAS CENTAUR R/B 4.1 20:49:48 10° W 20:52:37 22° NW 20:55:31 10° NNE
BREEZE-M DEB (TANK) 3.6 20:48:52 10° WSW 20:52:43 81° SSE 21:07:12 10° ENE
ATLAS 2AS CENTAUR R/B 3.8 20:48:26 10° NW 20:54:29 35° WSW 21:00:22 10° S
Landsat 4 3.7 20:52:04 10° SSE 20:55:24 54° ENE 20:58:46 10° N
Cosmos 1733 Rocket 3.9 20:53:00 10° NNW 20:57:17 50° W 21:01:34 10° SSW
NOSS 5 (C) 4.3 20:56:05 10° NW 20:59:15 69° SW 21:02:10 12° SSE
Cosmos 1455 2.1 20:56:11 10° N 20:59:40 61° ENE 21:02:59 11° SSE
Spot 2 Rocket 3.5 20:57:09 10° SSE 21:02:14 88° ENE 21:07:22 10° NNW
Cosmos 1408 4.1 21:01:32 11° ESE 21:03:03 15° E 21:04:49 10° NE
SPOT 3 Rocket 3.6 20:59:04 10° SSE 21:04:13 79° ENE 21:09:26 10° NNW
Resurs 01 Rocket 4.4 21:06:47 10° WSW 21:08:33 12° W 21:10:19 10° WNW
Iridium 51 4.4 21:06:07 10° S 21:10:21 80° E 21:14:23 10° N
Meteor 2-20 Rocket 4.5 21:04:56 10° N 21:11:07 83° W 21:17:00 10° S
SeaSat 1 2.5 21:08:35 12° SE 21:13:09 84° ENE 21:18:07 10° NNW
Cosmos 2360 Rocket 4.2 21:14:29 10° NW 21:18:37 21° W 21:22:44 10° SSW
Cosmos 158 Rocket 4.0 21:13:41 10° NNW 21:18:58 86° ENE 21:23:25 14° SSE
Cosmos 1953 2.4 21:15:17 10° NNW 21:19:06 72° W 21:22:42 11° S
Cosmos 1908 Rocket 3.5 21:15:01 10° N 21:19:21 87° W 21:23:22 12° S
COSMOS 2428 2.8 21:14:13 10° NNW 21:19:56 76° WSW 21:25:01 13° SSE
Cosmos 2208 Rocket 4.0 21:15:22 10° NNW 21:20:35 89° W 21:25:05 14° SSE
NOSS 8 (H) 4.4 21:16:50 10° SSW 21:20:40 60° SE 21:23:43 10° NE
Cosmos 1782 Rocket 3.8 21:19:01 10° N 21:23:18 55° ENE 21:26:41 16° SSE
CENTAUR R/B 3.7 21:23:46 14° SE 21:26:49 21° ESE 21:31:32 10° ENE
Ariane Rocket 3.4 21:22:38 10° S 21:27:40 62° WSW 21:32:44 10° NNW
Cosmos 1300 Rocket 3.9 21:24:25 10° N 21:28:39 52° ENE 21:31:51 17° SSE
EXPRESS MD2 1.8 21:26:53 10° WNW 21:29:28 89° N 21:30:59 17° ESE
Cosmos 2084 Rocket 3.7 21:27:41 10° SSW 21:31:48 44° SE 21:35:46 10° NE
Cosmos 1486 Rocket 4.0 21:32:20 10° S 21:37:27 63° ESE 21:42:36 10° NNE
Cosmos 1315 Rocket 4.0 21:35:05 10° SW 21:38:53 42° WNW 21:42:43 10° N
Cosmos 405 Rocket 4.1 21:38:24 10° N 21:41:37 26° ENE 21:43:50 16° ESE
GP-B 3.2 21:39:34 10° N 21:43:57 62° E 21:47:06 18° SSE
MetOp-A 4.1 21:40:03 16° SSE 21:44:20 89° WSW 21:49:30 10° NNW
BREEZE-M DEB (TANK) 3.3 21:39:23 10° W 21:44:35 43° N 21:46:50 10° ENE
ARIANE 5 R/B 3.5 21:41:49 16° SE 21:44:47 37° ENE 21:48:49 10° N
SJ 16-02 3.8 21:42:41 10° WSW 21:46:08 23° NW 21:49:37 10° N
NOSS 0 Rocket 4.1 21:40:01 10° NNW 21:46:15 71° WSW 21:51:08 17° SSE
BlueWalker 3 2.9 21:44:15 10° W 21:47:54 49° NNW 21:51:34 10° ENE
Cosmos 371 Rocket 3.2 21:43:59 10° SSW 21:48:45 69° ESE 21:53:34 10° NNE
SL-4 R/B 3.2 21:46:16 10° W 21:49:35 27° SW 21:51:26 19° S
USA 234 3.3 21:44:01 10° ENE 21:50:26 55° SE 21:56:49 10° SW
Terra 3.4 21:48:55 10° SSW 21:52:58 28° W 21:57:04 10° NW
Spot 1 4.4 21:50:51 10° NNE 21:55:35 81° WNW 22:00:33 10° SSW
Cosmos 1354 Rocket 4.4 21:55:11 18° S 21:58:53 47° ESE 22:03:56 10° NNE
H-2A R/B 3.9 21:56:27 15° ESE 21:59:09 28° ENE 22:02:44 10° N
SL-16 R/B 3.3 21:54:03 10° NNW 21:59:18 36° NE 22:04:11 11° ESE
Cosmos 2237 Rocket 2.2 21:55:22 10° NNW 22:01:04 86° WSW 22:05:00 21° SSE
Landsat 5 3.7 21:56:58 10° N 22:01:05 70° WNW 22:05:09 11° SSW
COSMOS 2455 3.0 21:57:56 10° SW 22:03:58 78° NW 22:10:04 10° NNE
Cosmos 1242 Rocket 4.3 22:02:39 10° WSW 22:04:47 20° WNW 22:06:55 10° NNW
Cosmos 1745 Rocket 4.1 21:58:43 11° S 22:04:47 85° W 22:11:12 10° N
USA 281 3.6 22:00:04 15° SE 22:05:24 58° ENE 22:11:51 10° NNW
CZ-4C R/B 2.0 22:01:37 10° SW 22:06:10 79° NW 22:12:00 10° NE
Cosmos 2227 Rocket 2.7 22:03:20 20° SSE 22:06:49 41° ESE 22:12:06 10° NE
Nadezhda 1 Rocket 4.3 22:01:52 10° NNW 22:08:03 65° W 22:13:03 16° S
Meteor 2-5 Rocket 4.0 22:05:17 19° SSE 22:09:22 57° E 22:15:00 10° NNE
Cosmos 2151 Rocket 4.4 22:07:37 10° N 22:11:45 39° ENE 22:14:08 21° SE
Cosmos 773 Rocket 4.2 22:09:37 10° NNW 22:14:43 62° WSW 22:18:03 22° S
Cosmos 1980 3.9 22:09:56 10° NNW 22:15:33 65° WSW 22:19:14 22° S
Okean 2 Rocket 3.9 22:12:13 10° N 22:16:28 40° ENE 22:18:55 22° SE
Cosmos 304 Rocket 3.8 22:13:19 11° SSW 22:17:56 79° WNW 22:22:44 10° NNE
Cosmos 2297 Rocket 2.2 22:20:05 10° SSW 22:25:44 83° WNW 22:31:26 10° NNE
ALOS 2 3.6 22:25:43 19° ESE 22:28:13 36° ENE 22:32:14 10° N
MINOTAUR 4 R/B 3.7 22:28:07 10° NNE 22:30:57 51° ESE 22:31:27 44° SE
CZ-2C R/B 3.6 22:29:52 10° NNE 22:34:19 89° WNW 22:37:07 23° SSW
Cosmos 1461 4.2 22:34:56 20° ESE 22:34:56 20° ESE 22:37:49 10° ENE
Cosmos 2098 Rocket 3.9 22:28:33 10° N 22:35:07 89° W 22:38:52 24° S
Cosmos 1703 3.4 22:33:07 24° SSW 22:35:09 63° W 22:38:50 10° N
Cosmos 1408 3.9 22:33:29 14° SW 22:35:29 27° WNW 22:38:07 10° NNW
NOSS 3-2 (A) 3.8 22:33:41 26° SSE 22:35:57 37° ESE 22:41:26 10° NE
Cosmos 2181 Rocket 4.0 22:31:48 10° N 22:37:59 76° E 22:41:46 25° SSE
Cosmos 2219 3.7 22:37:54 25° SSE 22:40:32 41° ESE 22:45:47 10° NE
Cosmos 1777 Rocket 4.2 22:39:06 13° SSW 22:43:48 71° WNW 22:49:05 10° NNE
H-2A R/B 4.1 22:42:02 10° ENE 22:44:08 14° E 22:45:13 12° ESE
Cosmos 332 Rocket 3.7 22:41:57 22° SSW 22:45:07 84° ESE 22:50:02 10° NNE
Cosmos 1825 2.3 22:44:58 38° SE 22:45:48 48° E 22:49:07 10° NNE
BREEZE-M DEB (TANK) 3.8 22:42:49 10° W 22:46:06 89° NNE 22:56:33 10° ESE
Cosmos 2263 Rocket 3.0 22:44:09 25° SE 22:46:20 33° ESE 22:51:15 10° NE
Meteor 1-24 Rocket 3.8 22:42:45 19° SSW 22:46:54 76° WNW 22:52:25 10° N
NOSS 3-2 (C) 4.5 22:46:16 20° SE 22:47:30 21° ESE 22:51:48 10° ENE
Cosmos 2221 Rocket 3.7 22:46:44 31° SSE 22:48:40 59° E 22:53:02 10° NNE
SeaSat 1 4.5 22:48:17 11° SW 22:51:10 16° WSW 22:54:14 10° WNW
Sich 1 Rocket 3.5 22:49:42 10° N 22:54:06 89° W 22:56:03 33° S
Okean 1 Rocket 3.2 22:51:13 10° N 22:55:34 63° ENE 22:57:31 31° SSE
Cosmos 1538 Rocket 4.0 22:50:43 10° NNW 22:55:58 81° ENE 22:58:51 28° SSE
PSLV R/B 4.0 22:52:43 10° N 22:56:42 70° WNW 22:58:45 27° SSW
Cosmos 1263 4.1 22:55:04 10° N 22:58:11 72° E 22:58:45 53° SE
Cosmos 1818 3.8 22:55:22 10° NW 23:00:52 71° NE 23:04:38 21° SE
Cosmos 1892 2.4 23:03:07 42° SSW 23:04:14 86° W 23:07:46 10° N
Spot 4 3.9 23:03:31 31° S 23:05:51 75° WSW 23:10:42 10° NNW
Cosmos 1025 Rocket 3.4 23:12:05 33° SSE 23:13:37 50° E 23:17:46 10° NNE
Nadezhda 3 Rocket 4.1 23:07:51 10° N 23:14:04 68° ENE 23:17:41 26° SSE
Cosmos 967 Rocket 4.5 23:11:00 20° SSW 23:15:40 75° ESE 23:22:08 10° NE
CENTAUR R/B 2.5 23:10:49 11° SW 23:16:19 84° NW 23:23:35 10° NE
Cosmos 405 Rocket 4.2 23:13:28 10° NW 23:16:40 26° W 23:18:05 21° SW
Cosmos 1975 Rocket 4.3 23:15:39 23° SE 23:17:14 29° E 23:21:03 10° NNE
ARIANE 5 R/B 4.1 23:19:17 19° SW 23:21:16 26° W 23:24:58 10° NW
Cosmos 923 Rocket 4.3 23:17:44 10° NNW 23:22:58 63° ENE 23:26:02 24° SE
Cosmos 1455 Rocket 3.5 23:20:23 10° N 23:24:47 55° ENE 23:26:44 30° SE
BlueWalker 3 3.1 23:22:55 10° WNW 23:26:31 43° N 23:30:07 10° E
Cosmos 1328 3.6 23:25:24 41° S 23:26:41 89° WSW 23:30:36 10° N
Cosmos 1898 Rocket 3.7 23:25:20 32° S 23:27:31 55° ESE 23:32:34 10° NNE
Cosmos 1378 Rocket 4.4 23:25:05 22° SW 23:27:32 44° WNW 23:31:46 10° N
Aureole 1 Rocket 3.0 23:26:55 38° S 23:28:27 72° ESE 23:33:31 10° NNE
Cosmos 2184 Rocket 4.1 23:26:26 26° SSW 23:30:18 83° W 23:36:44 10° N
Meteor 1-21 Rocket 4.4 23:27:44 29° SSE 23:30:35 64° E 23:36:09 10° NNE
Cosmos 1674 Rocket 4.2 23:29:17 24° SW 23:31:31 46° WNW 23:35:42 10° N
USA 234 3.7 23:27:05 10° NE 23:33:33 65° NNW 23:40:00 10° WSW
H-2A R/B 3.6 23:32:26 25° SW 23:33:59 33° W 23:37:48 10° NNW
SL-16 R/B 2.7 23:38:08 10° NW 23:43:33 46° WSW 23:46:02 29° SSW
Cosmos 2237 Rocket 4.2 23:41:12 10° WNW 23:44:14 15° W 23:46:48 11° SW
Cosmos 2154 Rocket 4.1 23:45:18 26° SSW 23:49:01 74° W 23:55:22 10° N
Cosmos 1603 4.5 23:43:32 10° NNW 23:49:08 50° NE 23:54:09 13° SE
Cosmos 1943 3.3 23:44:32 10° NNW 23:50:11 73° ENE 23:53:54 22° SE
USA 281 4.1 23:46:56 22° SSW 23:50:11 34° WSW 23:56:07 10° NW
Cosmos 2227 Rocket 3.4 23:45:35 10° WSW 23:50:53 40° NW 23:56:14 10° NNE
Cosmos 1867 4.4 23:50:22 28° SSE 23:52:13 35° ESE 23:57:10 10° NE
Meteor 2-1 Rocket 4.4 23:47:19 10° N 23:53:12 70° ENE 23:56:34 26° SSE
PSLV R/B 3.5 23:49:04 10° N 23:53:15 78° WNW 23:54:55 36° SSW
Cosmos 2082 3.7 23:50:39 26° SSW 23:53:58 85° WNW 23:59:38 10° NNE
